Hourly Weather Barsuki

Today, 19 April, Monday

Time Temperature Precipitation Wind Pressure Humidity
00:00 +5°C° 0 mm 3 mps 753 mmHg 82%
01:00 +5°C° 0 mm 4 mps 753 mmHg 84%
02:00 +4°C° 0 mm 4 mps 753 mmHg 86%
03:00 +4°C° 0 mm 4 mps 753 mmHg 87%
04:00 +4°C° 0 mm 4 mps 753 mmHg 87%
05:00 +3°C° 0 mm 5 mps 753 mmHg 86%
06:00 +2°C° 0 mm 5 mps 753 mmHg 86%
07:00 +3°C° 0 mm 5 mps 753 mmHg 78%
08:00 +5°C° 0 mm 5 mps 753 mmHg 71%
09:00 +6°C° 0 mm 5 mps 754 mmHg 64%
10:00 +7°C° 0 mm 6 mps 754 mmHg 60%
11:00 +8°C° 0 mm 6 mps 754 mmHg 56%
12:00 +9°C° 0 mm 6 mps 754 mmHg 53%
13:00 +9°C° 0 mm 6 mps 754 mmHg 53%
14:00 +9°C° 0 mm 6 mps 754 mmHg 53%
15:00 +9°C° 0 mm 6 mps 754 mmHg 53%
16:00 +8°C° 0 mm 6 mps 754 mmHg 52%
17:00 +8°C° 0 mm 6 mps 754 mmHg 50%
18:00 +7°C° 0 mm 6 mps 754 mmHg 49%
19:00 +5°C° 0 mm 6 mps 754 mmHg 51%
20:00 +6°C° 0 mm 5 mps 754 mmHg 53%
21:00 +5°C° 0 mm 5 mps 754 mmHg 55%
22:00 +3°C° 0 mm 5 mps 754 mmHg 58%
23:00 +3°C° 0 mm 5 mps 754 mmHg 62%

Tomorrow, 20 April, Tuesday

Time Temperature Precipitation Wind Pressure Humidity
00:00 +3°C° 0 mm 5 mps 754 mmHg 65%
01:00 +2°C° 0 mm 5 mps 754 mmHg 67%
02:00 +2°C° 0 mm 5 mps 754 mmHg 68%
03:00 +2°C° 0 mm 5 mps 754 mmHg 70%
04:00 +2°C° 0 mm 5 mps 754 mmHg 70%
05:00 +2°C° 0 mm 5 mps 754 mmHg 71%
06:00 +1°C° 0 mm 5 mps 754 mmHg 71%
07:00 +1°C° 0.1 mm 5 mps 754 mmHg 76%
08:00 +1°C° 0.1 mm 5 mps 754 mmHg 80%
09:00 +1°C° 0.1 mm 5 mps 754 mmHg 84%
10:00 +1°C° 0.2 mm 6 mps 753 mmHg 84%
11:00 +1°C° 0.2 mm 6 mps 753 mmHg 84%
12:00 +1°C° 0.2 mm 6 mps 753 mmHg 84%
13:00 +1°C° 0.4 mm 6 mps 752 mmHg 84%
14:00 +2°C° 0.4 mm 6 mps 752 mmHg 84%
15:00 +2°C° 0.4 mm 6 mps 752 mmHg 84%
16:00 +2°C° 0.3 mm 6 mps 751 mmHg 82%
17:00 +3°C° 0.3 mm 7 mps 750 mmHg 81%
18:00 +3°C° 0.3 mm 7 mps 750 mmHg 79%
19:00 +3°C° 0.4 mm 7 mps 749 mmHg 80%
20:00 +2°C° 0.4 mm 8 mps 748 mmHg 81%
21:00 +2°C° 0.4 mm 9 mps 747 mmHg 82%
22:00 +2°C° 2.7 mm 9 mps 746 mmHg 85%
23:00 +2°C° 2.7 mm 9 mps 745 mmHg 88%

Day after tomorrow, 21 April, Wednesday

Time Temperature Precipitation Wind Pressure Humidity
00:00 +1°C° 2.7 mm 9 mps 744 mmHg 91%
01:00 +1°C° 1.2 mm 9 mps 743 mmHg 91%
02:00 +2°C° 1.2 mm 9 mps 742 mmHg 90%
03:00 +2°C° 1.2 mm 9 mps 741 mmHg 90%
04:00 +3°C° 0.6 mm 9 mps 741 mmHg 90%
05:00 +3°C° 0.6 mm 9 mps 740 mmHg 91%
06:00 +3°C° 0.6 mm 9 mps 739 mmHg 91%
07:00 +5°C° 0.3 mm 9 mps 739 mmHg 91%
08:00 +5°C° 0.3 mm 9 mps 739 mmHg 91%
09:00 +6°C° 0.3 mm 9 mps 739 mmHg 91%
10:00 +5°C° 0.3 mm 8 mps 739 mmHg 90%
11:00 +4°C° 0.3 mm 8 mps 740 mmHg 88%
12:00 +4°C° 0.3 mm 7 mps 741 mmHg 87%
13:00 +3°C° 0 mm 7 mps 742 mmHg 86%
14:00 +3°C° 0 mm 7 mps 743 mmHg 85%
15:00 +3°C° 0 mm 7 mps 743 mmHg 84%
16:00 +3°C° 0 mm 6 mps 744 mmHg 83%
17:00 +3°C° 0 mm 6 mps 745 mmHg 83%
18:00 +3°C° 0 mm 5 mps 746 mmHg 82%
19:00 +3°C° 0 mm 5 mps 747 mmHg 83%
20:00 +4°C° 0 mm 4 mps 747 mmHg 84%
21:00 +4°C° 0 mm 4 mps 748 mmHg 84%
22:00 +4°C° 0 mm 4 mps 748 mmHg 85%
23:00 +4°C° 0 mm 3 mps 748 mmHg 85%

22 April, Thursday

Time Temperature Precipitation Wind Pressure Humidity
00:00 +4°C° 0 mm 3 mps 748 mmHg 85%
01:00 +4°C° 0.1 mm 3 mps 749 mmHg 88%
02:00 +4°C° 0.1 mm 3 mps 749 mmHg 90%
03:00 +4°C° 0.1 mm 3 mps 749 mmHg 93%
04:00 +3°C° 0 mm 3 mps 749 mmHg 93%
05:00 +3°C° 0 mm 3 mps 749 mmHg 94%
06:00 +3°C° 0 mm 3 mps 749 mmHg 95%
07:00 +4°C° 0 mm 3 mps 750 mmHg 87%
08:00 +6°C° 0 mm 4 mps 750 mmHg 79%
09:00 +7°C° 0 mm 4 mps 750 mmHg 71%
10:00 +10°C° 0 mm 4 mps 751 mmHg 66%
11:00 +10°C° 0 mm 5 mps 751 mmHg 61%
12:00 +12°C° 0 mm 5 mps 751 mmHg 56%
13:00 +13°C° 0.1 mm 5 mps 751 mmHg 56%
14:00 +13°C° 0.1 mm 5 mps 751 mmHg 56%
15:00 +13°C° 0.1 mm 5 mps 751 mmHg 56%
16:00 +13°C° 0.2 mm 4 mps 751 mmHg 60%
17:00 +12°C° 0.2 mm 4 mps 751 mmHg 65%
18:00 +12°C° 0.2 mm 3 mps 752 mmHg 69%
19:00 +11°C° 0 mm 3 mps 752 mmHg 73%
20:00 +9°C° 0 mm 3 mps 752 mmHg 77%
21:00 +8°C° 0 mm 2 mps 752 mmHg 82%
22:00 +8°C° 0 mm 2 mps 752 mmHg 81%
23:00 +8°C° 0 mm 2 mps 752 mmHg 80%

23 April, Friday

Time Temperature Precipitation Wind Pressure Humidity
00:00 +8°C° 0 mm 3 mps 752 mmHg 79%
01:00 +8°C° 0 mm 2 mps 752 mmHg 79%
02:00 +8°C° 0 mm 2 mps 752 mmHg 78%
03:00 +8°C° 0 mm 2 mps 752 mmHg 78%
04:00 +8°C° 0 mm 2 mps 752 mmHg 78%
05:00 +8°C° 0 mm 2 mps 752 mmHg 78%
06:00 +8°C° 0 mm 2 mps 752 mmHg 78%
07:00 +10°C° 0 mm 3 mps 752 mmHg 74%
08:00 +11°C° 0 mm 3 mps 752 mmHg 69%
09:00 +12°C° 0 mm 4 mps 752 mmHg 65%
10:00 +13°C° 0.2 mm 4 mps 752 mmHg 60%
11:00 +14°C° 0.2 mm 4 mps 752 mmHg 55%
12:00 +15°C° 0.2 mm 5 mps 752 mmHg 51%
13:00 +15°C° 0.2 mm 4 mps 751 mmHg 52%
14:00 +15°C° 0.2 mm 4 mps 751 mmHg 53%
15:00 +16°C° 0.2 mm 3 mps 751 mmHg 55%
16:00 +14°C° 0 mm 3 mps 750 mmHg 57%
17:00 +14°C° 0 mm 3 mps 750 mmHg 59%
18:00 +14°C° 0 mm 3 mps 750 mmHg 61%
19:00 +13°C° 0 mm 3 mps 749 mmHg 64%
20:00 +12°C° 0 mm 3 mps 749 mmHg 66%
21:00 +11°C° 0 mm 3 mps 749 mmHg 69%
22:00 +10°C° 0 mm 3 mps 749 mmHg 69%
23:00 +10°C° 0 mm 3 mps 748 mmHg 70%

24 April, Saturday

Time Temperature Precipitation Wind Pressure Humidity
00:00 +10°C° 0 mm 3 mps 748 mmHg 70%
01:00 +9°C° 0 mm 3 mps 747 mmHg 75%
02:00 +9°C° 0 mm 3 mps 747 mmHg 80%
03:00 +8°C° 0 mm 3 mps 747 mmHg 84%
04:00 +8°C° 0.1 mm 3 mps 746 mmHg 84%
05:00 +7°C° 0.1 mm 4 mps 746 mmHg 85%
06:00 +7°C° 0.1 mm 4 mps 746 mmHg 85%
07:00 +8°C° 0.2 mm 4 mps 745 mmHg 82%
08:00 +9°C° 0.2 mm 5 mps 745 mmHg 78%
09:00 +10°C° 0.2 mm 6 mps 745 mmHg 75%
10:00 +9°C° 0.6 mm 5 mps 745 mmHg 80%
11:00 +7°C° 0.6 mm 5 mps 745 mmHg 84%
12:00 +5°C° 0.6 mm 4 mps 746 mmHg 89%
13:00 +7°C° 0.1 mm 4 mps 746 mmHg 78%
14:00 +8°C° 0.1 mm 4 mps 746 mmHg 66%
15:00 +11°C° 0.1 mm 4 mps 746 mmHg 55%
16:00 +10°C° 0 mm 4 mps 746 mmHg 57%
17:00 +9°C° 0 mm 5 mps 746 mmHg 59%
18:00 +9°C° 0 mm 5 mps 746 mmHg 60%
19:00 +7°C° 0 mm 4 mps 747 mmHg 62%
20:00 +7°C° 0 mm 3 mps 747 mmHg 63%
21:00 +4°C° 0 mm 3 mps 747 mmHg 65%
22:00 +4°C° 0 mm 3 mps 748 mmHg 68%
23:00 +4°C° 0 mm 2 mps 748 mmHg 71%
Show more